Central Victoria, Mexico

7:05 AM on December 10, 2016 (GMT +0000)
Central Victoria

Weather History for 76649 - August, 2013

Change the Weather History Date:

Monday, August 26, 2013

  Actual Average Record
Temperature  
Mean Temperature 76 °F -  
Max Temperature 84 °F 88 °F - ()
Min Temperature 69 °F 75 °F - ()
Cooling Degree Days 12    
Growing Degree Days 26 (Base 50)    
Moisture  
Dew Point 73 °F    
Average Humidity 89    
Maximum Humidity 100    
Minimum Humidity 74    
Precipitation  
Precipitation 0.35 in - - ()
Sea Level Pressure  
Sea Level Pressure 30.01 in    
Wind  
Wind Speed 3 mph ()    
Max Wind Speed 12 mph    
Max Gust Speed -    
Visibility 7.5 miles    
Events      
T = Trace of Precipitation, MM = Missing Value Source: Averaged Metar Reports

Daily Weather History Graph

Daily Weather History Graph

Search for Another Location

Airport or City:

Trip Planner

Search our weather history database for the weather conditions in past years. The results will help you decide how hot, cold, wet, or windy it might be!

Date:

Astronomy

Aug. 26, 2013 Rise Set
Actual Time 11:30 AM UTC 12:08 AM UTC
Civil Twilight 11:07 AM UTC 12:30 AM UTC
Nautical Twilight 10:41 AM UTC 12:57 AM UTC
Astronomical Twilight 10:14 AM UTC 1:24 AM UTC
Moon 3:28 AM UTC (8/26) 4:39 PM UTC (8/26)
Length of Visible Light 13h 23m
Length of Day
12h 37m
Waning Gibbous, 68% of the Moon is Illuminated
Aug 26
Waning Gibbous
Aug 28
Last Quarter
Sep 5
New
Sep 12
First Quarter
Sep 19
Full

Hourly Weather History & Observations

Time (GMT) Temp. Heat Index Dew Point Humidity Pressure Visibility Wind Dir Wind Speed Gust Speed Precip Events Conditions
12:42 AM 77.0 °F - 73.4 °F 89% 30.01 in 7.0 mi ESE 5.8 mph - N/A   Mostly Cloudy
1:46 AM 75.2 °F - 73.4 °F 94% 30.03 in 8.0 mi Calm Calm - N/A   Scattered Clouds
2:44 AM 75.2 °F - 71.6 °F 89% 30.08 in 7.0 mi Calm Calm - N/A   Scattered Clouds
3:43 AM 71.6 °F - 69.8 °F 94% 30.05 in 6.0 mi Calm Calm - N/A   Mostly Cloudy
4:50 AM 71.6 °F - 71.6 °F 100% 30.05 in 7.0 mi Calm Calm - N/A   Scattered Clouds
5:40 AM 71.6 °F - 71.6 °F 100% 30.02 in 7.0 mi Calm Calm - N/A   Scattered Clouds
6:45 AM 71.6 °F - 71.6 °F 100% 30.02 in 7.0 mi Calm Calm - N/A   Partly Cloudy
8:02 AM 69.8 °F - 69.8 °F 100% 29.99 in 7.0 mi ESE 4.6 mph - N/A   Partly Cloudy
8:42 AM 71.6 °F - 71.6 °F 100% 30.02 in 7.0 mi Calm Calm - N/A   Clear
9:42 AM 71.6 °F - 71.6 °F 100% 29.99 in 7.0 mi Calm Calm - N/A   Clear
10:47 AM 69.8 °F - 69.8 °F 100% 30.01 in 7.0 mi Calm Calm - N/A   Partly Cloudy
11:52 AM 69.8 °F - 69.8 °F 100% 29.99 in 8.0 mi Calm Calm - N/A   Scattered Clouds
12:41 PM 73.4 °F - 73.4 °F 100% 30.01 in 8.0 mi Calm Calm - N/A   Scattered Clouds
1:42 PM 78.8 °F - 77.0 °F 94% 30.02 in 8.0 mi East 6.9 mph - N/A   Scattered Clouds
2:41 PM 80.6 °F 86.2 °F 75.2 °F 84% 30.07 in 8.0 mi ENE 6.9 mph - N/A   Scattered Clouds
3:41 PM 82.4 °F 89.5 °F 75.2 °F 79% 30.04 in 8.0 mi ENE 6.9 mph - N/A   Mostly Cloudy
4:43 PM 84.2 °F 92.3 °F 75.2 °F 74% 30.03 in 8.0 mi ENE 10.4 mph - N/A   Mostly Cloudy
5:48 PM 84.2 °F 92.3 °F 75.2 °F 74% 30.01 in 8.0 mi NE 10.4 mph - N/A   Mostly Cloudy
6:48 PM 84.2 °F 92.3 °F 75.2 °F 74% 30.00 in 8.0 mi NE 9.2 mph - N/A   Mostly Cloudy
7:46 PM 84.2 °F 92.3 °F 75.2 °F 74% 29.98 in 8.0 mi NE 10.4 mph - N/A   Mostly Cloudy
8:46 PM 84.2 °F 92.3 °F 75.2 °F 74% 29.99 in 8.0 mi East 11.5 mph - N/A   Mostly Cloudy
9:50 PM 82.4 °F 88.2 °F 73.4 °F 74% 29.95 in 8.0 mi ENE 6.9 mph - N/A   Mostly Cloudy
10:46 PM 82.4 °F 89.5 °F 75.2 °F 79% 29.95 in 8.0 mi ENE 6.9 mph - N/A   Mostly Cloudy
11:53 PM 78.8 °F - 75.2 °F 89% 29.95 in 7.0 mi ENE 4.6 mph - N/A   Mostly Cloudy